Time,TemperatureF,DewpointF,PressureIn,WindDirection,WindDirectionDegrees,WindSpeedMPH,WindSpeedGustMPH,Humidity,HourlyPrecipIn,Conditions,Clouds,dailyrainin,SoftwareType,DateUTC
2013-04-23 00:02:00,60.1,45.3,29.89,SSW,203,2.0,3.0,58,0.00,,,0.00,meteohub,2013-04-23 05:02:00,
2013-04-23 00:07:00,59.9,45.1,29.90,South,180,3.0,3.0,58,0.00,,,0.00,meteohub,2013-04-23 05:07:00,
2013-04-23 00:12:00,60.1,45.7,29.89,SE,135,2.0,5.0,59,0.00,,,0.00,meteohub,2013-04-23 05:12:00,
2013-04-23 00:17:00,60.1,45.7,29.89,SE,135,3.0,5.0,59,0.00,,,0.00,meteohub,2013-04-23 05:17:00,
2013-04-23 00:22:00,60.1,45.7,29.89,SSW,203,2.0,5.0,59,0.00,,,0.00,meteohub,2013-04-23 05:22:00,
2013-04-23 00:27:00,60.3,45.9,29.89,ESE,113,2.0,5.0,59,0.00,,,0.00,meteohub,2013-04-23 05:27:00,
2013-04-23 00:32:00,60.3,45.9,29.89,South,180,2.0,5.0,59,0.00,,,0.00,meteohub,2013-04-23 05:32:00,
2013-04-23 00:37:00,60.3,45.9,29.89,SE,135,4.0,4.0,59,0.00,,,0.00,meteohub,2013-04-23 05:37:00,
2013-04-23 00:42:00,60.3,45.9,29.89,ESE,113,0.0,4.0,59,0.00,,,0.00,meteohub,2013-04-23 05:42:00,
2013-04-23 00:47:00,60.1,45.7,29.89,SE,135,2.0,4.0,59,0.00,,,0.00,meteohub,2013-04-23 05:47:00,
2013-04-23 00:52:00,60.1,45.7,29.89,SSE,158,3.0,4.0,59,0.00,,,0.00,meteohub,2013-04-23 05:52:00,
2013-04-23 00:57:00,60.1,45.7,29.89,East,90,3.0,4.0,59,0.00,,,0.00,meteohub,2013-04-23 05:57:00,
2013-04-23 01:02:00,60.1,46.2,29.91,SSE,158,4.0,4.0,60,0.00,,,0.00,meteohub,2013-04-23 06:02:00,
2013-04-23 01:07:00,60.3,46.4,29.90,South,180,3.0,4.0,60,0.00,,,0.00,meteohub,2013-04-23 06:07:00,
2013-04-23 01:13:00,60.3,46.4,29.90,South,180,4.0,4.0,60,0.00,,,0.00,meteohub,2013-04-23 06:13:00,
2013-04-23 01:18:00,60.3,46.4,29.90,SW,225,3.0,5.0,60,0.00,,,0.00,meteohub,2013-04-23 06:18:00,
2013-04-23 01:23:00,60.3,45.9,29.89,SE,135,2.0,5.0,59,0.00,,,0.00,meteohub,2013-04-23 06:23:00,
2013-04-23 01:28:00,60.3,46.4,29.89,ESE,113,2.0,4.0,60,0.00,,,0.00,meteohub,2013-04-23 06:28:00,
2013-04-23 01:33:00,60.3,46.4,29.89,SE,135,0.0,3.0,60,0.00,,,0.00,meteohub,2013-04-23 06:33:00,
2013-04-23 01:38:00,60.3,46.4,29.89,SSE,158,2.0,2.0,60,0.00,,,0.00,meteohub,2013-04-23 06:38:00,
2013-04-23 01:43:00,60.1,46.2,29.89,ESE,113,2.0,3.0,60,0.00,,,0.00,meteohub,2013-04-23 06:43:00,
2013-04-23 01:48:00,60.1,46.2,29.89,South,180,0.0,3.0,60,0.00,,,0.00,meteohub,2013-04-23 06:48:00,
2013-04-23 01:53:00,60.1,46.2,29.89,SE,135,0.0,3.0,60,0.00,,,0.00,meteohub,2013-04-23 06:53:00,
2013-04-23 01:58:00,60.1,46.2,29.89,ENE,68,0.0,3.0,60,0.00,,,0.00,meteohub,2013-04-23 06:58:00,
2013-04-23 02:03:00,59.9,46.0,29.90,WSW,248,4.0,4.0,60,0.00,,,0.00,meteohub,2013-04-23 07:03:00,
2013-04-23 02:08:00,59.9,46.0,29.90,SE,135,2.0,4.0,60,0.00,,,0.00,meteohub,2013-04-23 07:08:00,
2013-04-23 02:13:00,59.9,46.0,29.90,ESE,113,0.0,5.0,60,0.00,,,0.00,meteohub,2013-04-23 07:13:00,
2013-04-23 02:18:00,59.9,46.0,29.90,SE,135,3.0,5.0,60,0.00,,,0.00,meteohub,2013-04-23 07:18:00,
2013-04-23 02:23:00,59.9,46.4,29.88,SE,135,2.0,5.0,61,0.00,,,0.00,meteohub,2013-04-23 07:23:00,
2013-04-23 02:28:00,59.9,46.4,29.88,SSE,158,3.0,3.0,61,0.00,,,0.00,meteohub,2013-04-23 07:28:00,
2013-04-23 02:33:00,59.9,46.4,29.88,ENE,68,0.0,3.0,61,0.00,,,0.00,meteohub,2013-04-23 07:33:00,
2013-04-23 02:38:00,59.7,46.2,29.88,SSW,203,0.0,3.0,61,0.00,,,0.00,meteohub,2013-04-23 07:38:00,
2013-04-23 02:43:00,59.5,46.0,29.90,East,90,1.0,3.0,61,0.00,,,0.00,meteohub,2013-04-23 07:43:00,
2013-04-23 02:48:00,59.5,46.0,29.90,SE,135,0.0,2.0,61,0.00,,,0.00,meteohub,2013-04-23 07:48:00,
2013-04-23 02:53:00,59.4,45.9,29.90,ESE,113,2.0,2.0,61,0.00,,,0.00,meteohub,2013-04-23 07:53:00,
2013-04-23 02:58:00,59.5,46.0,29.90,SE,135,2.0,2.0,61,0.00,,,0.00,meteohub,2013-04-23 07:58:00,
2013-04-23 03:03:00,59.5,46.0,29.88,SE,135,0.0,2.0,61,0.00,,,0.00,meteohub,2013-04-23 08:03:00,
2013-04-23 03:08:00,59.4,45.9,29.88,SE,135,3.0,3.0,61,0.00,,,0.00,meteohub,2013-04-23 08:08:00,
2013-04-23 03:13:00,59.4,45.9,29.88,SE,135,2.0,3.0,61,0.00,,,0.00,meteohub,2013-04-23 08:13:00,
2013-04-23 03:18:00,59.4,45.9,29.88,SE,135,0.0,3.0,61,0.00,,,0.00,meteohub,2013-04-23 08:18:00,
2013-04-23 03:23:00,59.2,46.2,29.86,SE,135,1.0,3.0,62,0.00,,,0.00,meteohub,2013-04-23 08:23:00,
2013-04-23 03:28:00,59.2,46.2,29.86,ESE,113,2.0,2.0,62,0.00,,,0.00,meteohub,2013-04-23 08:28:00,
2013-04-23 03:33:00,59.0,46.0,29.86,SW,225,1.0,2.0,62,0.00,,,0.00,meteohub,2013-04-23 08:33:00,
2013-04-23 03:38:00,59.2,46.2,29.86,South,180,1.0,2.0,62,0.00,,,0.00,meteohub,2013-04-23 08:38:00,
2013-04-23 03:43:00,59.0,46.0,29.86,SE,135,2.0,2.0,62,0.00,,,0.00,meteohub,2013-04-23 08:43:00,
2013-04-23 03:48:00,58.8,46.2,29.86,SE,135,5.0,5.0,63,0.00,,,0.00,meteohub,2013-04-23 08:48:00,
2013-04-23 03:53:00,58.8,46.2,29.86,SE,135,3.0,5.0,63,0.00,,,0.00,meteohub,2013-04-23 08:53:00,
2013-04-23 03:58:00,59.0,46.4,29.86,ESE,113,4.0,5.0,63,0.00,,,0.00,meteohub,2013-04-23 08:58:00,
2013-04-23 04:03:00,58.8,46.2,29.82,ENE,68,3.0,5.0,63,0.00,,,0.00,meteohub,2013-04-23 09:03:00,
2013-04-23 04:08:00,58.8,46.2,29.82,East,90,0.0,5.0,63,0.00,,,0.00,meteohub,2013-04-23 09:08:00,
2013-04-23 04:13:00,58.8,46.2,29.82,SE,135,2.0,4.0,63,0.00,,,0.00,meteohub,2013-04-23 09:13:00,
2013-04-23 04:18:00,58.6,46.6,29.82,ENE,68,0.0,4.0,64,0.00,,,0.00,meteohub,2013-04-23 09:18:00,
2013-04-23 04:23:00,58.6,46.6,29.82,NW,315,0.0,4.0,64,0.00,,,0.00,meteohub,2013-04-23 09:23:00,
2013-04-23 04:28:00,58.3,46.2,29.82,South,180,0.0,2.0,64,0.00,,,0.00,meteohub,2013-04-23 09:28:00,
2013-04-23 04:33:00,58.1,46.4,29.82,SE,135,0.0,1.0,65,0.00,,,0.00,meteohub,2013-04-23 09:33:00,
2013-04-23 04:38:00,58.1,46.8,29.82,West,270,0.0,0.0,66,0.00,,,0.00,meteohub,2013-04-23 09:38:00,
2013-04-23 04:43:00,57.7,46.4,29.83,NE,45,0.0,0.0,66,0.00,,,0.00,meteohub,2013-04-23 09:43:00,
2013-04-23 04:48:00,57.4,46.6,29.83,SE,135,0.0,0.0,67,0.00,,,0.00,meteohub,2013-04-23 09:48:00,
2013-04-23 04:53:00,57.4,46.9,29.83,NW,315,0.0,0.0,68,0.00,,,0.00,meteohub,2013-04-23 09:53:00,
2013-04-23 04:58:00,57.0,46.6,29.83,NNE,23,0.0,0.0,68,0.00,,,0.00,meteohub,2013-04-23 09:58:00,
2013-04-23 05:04:00,57.0,46.6,29.84,NNE,23,0.0,0.0,68,0.00,,,0.00,meteohub,2013-04-23 10:04:00,
2013-04-23 05:09:00,57.0,46.9,29.84,NNE,23,0.0,0.0,69,0.00,,,0.00,meteohub,2013-04-23 10:09:00,
2013-04-23 05:14:00,56.8,46.8,29.84,ENE,68,0.0,0.0,69,0.00,,,0.00,meteohub,2013-04-23 10:14:00,
2013-04-23 05:19:00,56.7,46.6,29.84,NNE,23,0.0,0.0,69,0.00,,,0.00,meteohub,2013-04-23 10:19:00,
2013-04-23 05:24:00,56.7,46.9,29.87,NW,315,0.0,0.0,70,0.00,,,0.00,meteohub,2013-04-23 10:24:00,
2013-04-23 05:29:00,56.5,46.8,29.87,SW,225,0.0,0.0,70,0.00,,,0.00,meteohub,2013-04-23 10:29:00,
2013-04-23 05:34:00,56.7,47.3,29.87,SE,135,0.0,0.0,71,0.00,,,0.00,meteohub,2013-04-23 10:34:00,
2013-04-23 05:39:00,56.5,47.1,29.87,NNE,23,0.0,0.0,71,0.00,,,0.00,meteohub,2013-04-23 10:39:00,
2013-04-23 05:44:00,56.1,47.3,29.87,ENE,68,0.0,0.0,72,0.00,,,0.00,meteohub,2013-04-23 10:44:00,
2013-04-23 05:49:00,55.9,47.5,29.87,ESE,113,2.0,0.0,73,0.00,,,0.00,meteohub,2013-04-23 10:49:00,
2013-04-23 05:54:00,55.8,47.3,29.87,SE,135,0.0,0.0,73,0.00,,,0.00,meteohub,2013-04-23 10:54:00,
2013-04-23 05:59:00,55.6,47.8,29.87,NNE,23,0.0,2.0,75,0.00,,,0.00,meteohub,2013-04-23 10:59:00,
2013-04-23 06:04:00,55.2,47.5,29.86,NE,45,0.0,2.0,75,0.02,,,0.02,meteohub,2013-04-23 11:04:00,
2013-04-23 06:09:00,54.9,47.5,29.86,NE,45,2.0,0.0,76,0.02,,,0.02,meteohub,2013-04-23 11:09:00,
2013-04-23 06:14:00,54.7,47.7,29.86,ENE,68,1.0,0.0,77,0.02,,,0.02,meteohub,2013-04-23 11:14:00,
2013-04-23 06:19:00,54.5,47.5,29.86,East,90,0.0,2.0,77,0.02,,,0.02,meteohub,2013-04-23 11:19:00,
2013-04-23 06:24:00,54.3,47.7,29.84,NNW,338,0.0,2.0,78,0.02,,,0.02,meteohub,2013-04-23 11:24:00,
2013-04-23 06:29:00,54.1,47.5,29.84,NE,45,0.0,1.0,78,0.05,,,0.05,meteohub,2013-04-23 11:29:00,
2013-04-23 06:34:00,54.1,47.8,29.84,NE,45,0.0,0.0,79,0.05,,,0.05,meteohub,2013-04-23 11:34:00,
2013-04-23 06:39:00,54.1,47.8,29.84,WNW,293,0.0,0.0,79,0.05,,,0.05,meteohub,2013-04-23 11:39:00,
2013-04-23 06:44:00,53.8,47.8,29.86,NNE,23,0.0,0.0,80,0.05,,,0.05,meteohub,2013-04-23 11:44:00,
2013-04-23 06:49:00,53.6,47.8,29.86,WNW,293,3.0,0.0,81,0.05,,,0.05,meteohub,2013-04-23 11:49:00,
2013-04-23 06:54:00,53.8,48.0,29.86,NNE,23,3.0,3.0,81,0.08,,,0.08,meteohub,2013-04-23 11:54:00,
2013-04-23 06:59:00,53.4,48.0,29.86,NW,315,3.0,3.0,82,0.08,,,0.11,meteohub,2013-04-23 11:59:00,
2013-04-23 07:04:00,53.4,48.0,29.91,North,0,2.0,3.0,82,0.14,,,0.16,meteohub,2013-04-23 12:04:00,
2013-04-23 07:09:00,53.1,48.0,29.91,NE,45,2.0,3.0,83,0.17,,,0.19,meteohub,2013-04-23 12:09:00,
2013-04-23 07:14:00,53.1,48.4,29.91,NNW,338,2.0,3.0,84,0.22,,,0.24,meteohub,2013-04-23 12:14:00,
2013-04-23 07:19:00,53.1,48.4,29.91,ENE,68,0.0,3.0,84,0.27,,,0.30,meteohub,2013-04-23 12:19:00,
2013-04-23 07:24:00,52.7,48.0,29.91,NNE,23,2.0,3.0,84,0.24,,,0.30,meteohub,2013-04-23 12:24:00,
2013-04-23 07:29:00,52.7,48.4,29.91,NE,45,2.0,3.0,85,0.24,,,0.30,meteohub,2013-04-23 12:29:00,
2013-04-23 07:34:00,52.9,48.6,29.91,SE,135,2.0,2.0,85,0.27,,,0.32,meteohub,2013-04-23 12:34:00,
2013-04-23 07:39:00,52.7,48.4,29.91,NE,45,3.0,3.0,85,0.27,,,0.32,meteohub,2013-04-23 12:39:00,
2013-04-23 07:44:00,52.7,48.4,29.89,ESE,113,6.0,6.0,85,0.27,,,0.32,meteohub,2013-04-23 12:44:00,
2013-04-23 07:49:00,52.5,48.4,29.89,ENE,68,2.0,3.0,86,0.24,,,0.32,meteohub,2013-04-23 12:49:00,
2013-04-23 07:54:00,52.7,48.6,29.89,NE,45,3.0,6.0,86,0.24,,,0.32,meteohub,2013-04-23 12:54:00,
2013-04-23 07:59:00,52.7,48.6,29.89,NE,45,1.0,6.0,86,0.16,,,0.32,meteohub,2013-04-23 12:59:00,
2013-04-23 08:04:00,52.7,48.6,29.91,NNE,23,0.0,6.0,86,0.13,,,0.32,meteohub,2013-04-23 13:04:00,
2013-04-23 08:09:00,52.7,48.6,29.91,NE,45,0.0,3.0,86,0.11,,,0.32,meteohub,2013-04-23 13:09:00,
2013-04-23 08:14:00,52.7,48.9,29.91,ENE,68,2.0,3.0,87,0.06,,,0.35,meteohub,2013-04-23 13:14:00,
2013-04-23 08:19:00,52.7,48.9,29.91,NNE,23,2.0,2.0,87,0.08,,,0.38,meteohub,2013-04-23 13:19:00,
2013-04-23 08:24:00,52.7,48.9,29.90,ENE,68,2.0,2.0,87,0.08,,,0.38,meteohub,2013-04-23 13:24:00,
2013-04-23 08:29:00,52.7,48.9,29.90,ENE,68,2.0,3.0,87,0.06,,,0.38,meteohub,2013-04-23 13:29:00,
2013-04-23 08:34:00,52.7,48.9,29.90,ENE,68,2.0,3.0,87,0.06,,,0.38,meteohub,2013-04-23 13:34:00,
2013-04-23 08:39:00,52.7,48.9,29.90,NNE,23,3.0,3.0,87,0.06,,,0.38,meteohub,2013-04-23 13:39:00,
2013-04-23 08:44:00,53.1,49.3,29.90,ENE,68,4.0,4.0,87,0.08,,,0.41,meteohub,2013-04-23 13:44:00,
2013-04-23 08:49:00,52.9,49.5,29.90,NNE,23,3.0,6.0,88,0.08,,,0.41,meteohub,2013-04-23 13:49:00,
2013-04-23 08:54:00,53.1,49.6,29.90,SE,135,7.0,7.0,88,0.08,,,0.41,meteohub,2013-04-23 13:54:00,
2013-04-23 08:59:00,52.9,49.5,29.88,ESE,113,4.0,7.0,88,0.08,,,0.41,meteohub,2013-04-23 13:59:00,
2013-04-23 09:04:00,52.9,49.5,29.88,SSE,158,3.0,9.0,88,0.08,,,0.41,meteohub,2013-04-23 14:04:00,
2013-04-23 09:09:00,53.1,49.6,29.88,East,90,4.0,9.0,88,0.06,,,0.41,meteohub,2013-04-23 14:09:00,
2013-04-23 09:15:00,53.4,50.0,29.88,ESE,113,3.0,9.0,88,0.03,,,0.41,meteohub,2013-04-23 14:15:00,
2013-04-23 09:20:00,53.2,49.8,29.88,ENE,68,3.0,6.0,88,0.03,,,0.41,meteohub,2013-04-23 14:20:00,
2013-04-23 09:25:00,53.4,50.0,29.88,ENE,68,3.0,6.0,88,0.03,,,0.41,meteohub,2013-04-23 14:25:00,
2013-04-23 09:29:00,53.4,50.0,29.88,ENE,68,0.0,6.0,88,0.03,,,0.41,meteohub,2013-04-23 14:29:00,
2013-04-23 09:35:00,53.4,50.0,29.88,NNE,23,0.0,6.0,88,0.03,,,0.41,meteohub,2013-04-23 14:35:00,
2013-04-23 09:40:00,53.4,50.0,29.88,WSW,248,0.0,4.0,88,0.00,,,0.41,meteohub,2013-04-23 14:40:00,
2013-04-23 09:45:00,53.6,50.2,29.89,ESE,113,2.0,4.0,88,0.00,,,0.41,meteohub,2013-04-23 14:45:00,
2013-04-23 09:50:00,53.6,50.2,29.89,NNE,23,0.0,2.0,88,0.00,,,0.41,meteohub,2013-04-23 14:50:00,
2013-04-23 09:55:00,53.6,50.2,29.89,NE,45,0.0,4.0,88,0.00,,,0.41,meteohub,2013-04-23 14:55:00,
2013-04-23 10:00:00,53.6,49.8,29.89,NW,315,0.0,4.0,87,0.00,,,0.41,meteohub,2013-04-23 15:00:00,
2013-04-23 10:05:00,53.8,50.0,29.90,ENE,68,0.0,0.0,87,0.00,,,0.41,meteohub,2013-04-23 15:05:00,
2013-04-23 10:10:00,53.6,49.8,29.90,NE,45,0.0,0.0,87,0.00,,,0.41,meteohub,2013-04-23 15:10:00,
2013-04-23 10:15:00,53.6,49.8,29.90,ENE,68,1.0,0.0,87,0.00,,,0.41,meteohub,2013-04-23 15:15:00,
2013-04-23 10:20:00,53.6,49.8,29.88,ENE,68,0.0,3.0,87,0.00,,,0.41,meteohub,2013-04-23 15:20:00,
2013-04-23 10:25:00,53.6,49.8,29.88,ESE,113,2.0,4.0,87,0.00,,,0.41,meteohub,2013-04-23 15:25:00,
2013-04-23 10:30:00,53.6,49.8,29.88,SE,135,4.0,4.0,87,0.00,,,0.41,meteohub,2013-04-23 15:30:00,
2013-04-23 10:35:00,53.6,49.8,29.88,ESE,113,0.0,4.0,87,0.00,,,0.41,meteohub,2013-04-23 15:35:00,
2013-04-23 10:40:00,53.6,49.8,29.88,ESE,113,6.0,6.0,87,0.00,,,0.41,meteohub,2013-04-23 15:40:00,
2013-04-23 10:45:00,53.8,50.0,29.89,NW,315,0.0,6.0,87,0.00,,,0.41,meteohub,2013-04-23 15:45:00,
2013-04-23 10:50:00,53.6,49.8,29.89,ESE,113,0.0,6.0,87,0.00,,,0.41,meteohub,2013-04-23 15:50:00,
2013-04-23 10:55:00,53.8,50.0,29.89,ESE,113,1.0,6.0,87,0.00,,,0.41,meteohub,2013-04-23 15:55:00,
2013-04-23 11:00:00,54.0,50.2,29.89,East,90,0.0,2.0,87,0.00,,,0.41,meteohub,2013-04-23 16:00:00,
2013-04-23 11:05:00,54.0,50.2,29.89,North,0,0.0,2.0,87,0.00,,,0.41,meteohub,2013-04-23 16:05:00,
2013-04-23 11:10:00,54.0,50.2,29.89,East,90,0.0,2.0,87,0.00,,,0.41,meteohub,2013-04-23 16:10:00,
2013-04-23 11:15:00,54.1,50.4,29.89,East,90,1.0,0.0,87,0.00,,,0.41,meteohub,2013-04-23 16:15:00,
2013-04-23 11:20:00,54.0,50.2,29.90,NNE,23,0.0,3.0,87,0.00,,,0.41,meteohub,2013-04-23 16:20:00,
2013-04-23 11:25:00,54.1,50.4,29.90,NW,315,10.0,10.0,87,0.00,,,0.41,meteohub,2013-04-23 16:25:00,
2013-04-23 11:30:00,53.1,48.9,29.91,WSW,248,1.0,10.0,86,0.00,,,0.41,meteohub,2013-04-23 16:30:00,
2013-04-23 11:35:00,52.3,48.2,29.91,ENE,68,4.0,10.0,86,0.00,,,0.41,meteohub,2013-04-23 16:35:00,
2013-04-23 11:40:00,51.3,46.9,29.90,ENE,68,2.0,4.0,85,0.00,,,0.41,meteohub,2013-04-23 16:40:00,
2013-04-23 11:45:00,50.7,46.8,29.90,WSW,248,4.0,4.0,86,0.00,,,0.41,meteohub,2013-04-23 16:45:00,
2013-04-23 11:50:00,50.2,45.9,29.90,ENE,68,2.0,4.0,85,0.00,,,0.41,meteohub,2013-04-23 16:50:00,
2013-04-23 11:55:00,50.2,46.2,29.90,West,270,7.0,7.0,86,0.00,,,0.41,meteohub,2013-04-23 16:55:00,
2013-04-23 12:00:00,49.6,45.7,29.91,NW,315,1.0,7.0,86,0.00,,,0.41,meteohub,2013-04-23 17:00:00,
2013-04-23 12:05:00,49.5,45.5,29.91,NW,315,11.0,11.0,86,0.00,,,0.41,meteohub,2013-04-23 17:05:00,
2013-04-23 12:10:00,48.7,44.8,29.91,North,0,2.0,11.0,86,0.00,,,0.41,meteohub,2013-04-23 17:10:00,
2013-04-23 12:15:00,48.6,44.6,29.91,NW,315,4.0,11.0,86,0.00,,,0.41,meteohub,2013-04-23 17:15:00,
2013-04-23 12:20:00,48.0,44.4,29.93,NNW,338,0.0,4.0,87,0.00,,,0.41,meteohub,2013-04-23 17:20:00,
2013-04-23 12:25:00,47.8,44.2,29.93,South,180,0.0,4.0,87,0.00,,,0.41,meteohub,2013-04-23 17:25:00,
2013-04-23 12:30:00,47.3,43.7,29.93,NNE,23,3.0,3.0,87,0.00,,,0.41,meteohub,2013-04-23 17:30:00,
2013-04-23 12:35:00,47.1,43.5,29.93,NE,45,2.0,8.0,87,0.00,,,0.41,meteohub,2013-04-23 17:35:00,
2013-04-23 12:40:00,46.9,43.3,29.92,North,0,3.0,8.0,87,0.00,,,0.41,meteohub,2013-04-23 17:40:00,
2013-04-23 12:46:00,46.9,43.3,29.92,NNE,23,3.0,8.0,87,0.00,,,0.41,meteohub,2013-04-23 17:46:00,
2013-04-23 12:51:00,46.6,43.0,29.92,NE,45,3.0,4.0,87,0.00,,,0.41,meteohub,2013-04-23 17:51:00,
2013-04-23 12:56:00,46.4,42.8,29.92,NE,45,4.0,4.0,87,0.00,,,0.41,meteohub,2013-04-23 17:56:00,
2013-04-23 13:01:00,46.0,42.4,29.92,NNE,23,3.0,4.0,87,0.00,,,0.41,meteohub,2013-04-23 18:01:00,
2013-04-23 13:06:00,45.7,42.1,29.92,West,270,2.0,4.0,87,0.00,,,0.41,meteohub,2013-04-23 18:06:00,
2013-04-23 13:11:00,45.7,42.3,29.92,NNW,338,3.0,4.0,88,0.00,,,0.41,meteohub,2013-04-23 18:11:00,
2013-04-23 13:16:00,45.7,42.3,29.92,West,270,2.0,4.0,88,0.00,,,0.41,meteohub,2013-04-23 18:16:00,
2013-04-23 13:21:00,45.5,42.1,29.92,WSW,248,0.0,4.0,88,0.00,,,0.41,meteohub,2013-04-23 18:21:00,
2013-04-23 13:26:00,45.5,42.1,29.92,North,0,3.0,4.0,88,0.00,,,0.41,meteohub,2013-04-23 18:26:00,
2013-04-23 13:31:00,45.1,41.7,29.92,NW,315,4.0,6.0,88,0.00,,,0.41,meteohub,2013-04-23 18:31:00,
2013-04-23 13:36:00,45.0,41.5,29.92,NNE,23,0.0,6.0,88,0.00,,,0.41,meteohub,2013-04-23 18:36:00,
2013-04-23 13:41:00,45.0,41.5,29.93,SSW,203,0.0,6.0,88,0.00,,,0.41,meteohub,2013-04-23 18:41:00,
2013-04-23 13:46:00,44.8,41.4,29.93,SSW,203,4.0,4.0,88,0.00,,,0.41,meteohub,2013-04-23 18:46:00,
2013-04-23 13:51:00,44.6,41.2,29.93,SW,225,2.0,4.0,88,0.00,,,0.41,meteohub,2013-04-23 18:51:00,
2013-04-23 13:56:00,44.4,41.2,29.93,NNE,23,3.0,4.0,88,0.00,,,0.41,meteohub,2013-04-23 18:56:00,
2013-04-23 14:01:00,44.4,41.2,29.92,NNE,23,1.0,4.0,88,0.00,,,0.41,meteohub,2013-04-23 19:01:00,
2013-04-23 14:06:00,44.4,41.2,29.92,NE,45,2.0,3.0,88,0.00,,,0.41,meteohub,2013-04-23 19:06:00,
2013-04-23 14:11:00,44.4,41.2,29.92,ESE,113,3.0,3.0,88,0.00,,,0.41,meteohub,2013-04-23 19:11:00,
2013-04-23 14:16:00,44.1,40.8,29.92,NNW,338,3.0,4.0,88,0.00,,,0.41,meteohub,2013-04-23 19:16:00,
2013-04-23 14:21:00,43.7,40.5,29.93,North,0,2.0,4.0,88,0.00,,,0.41,meteohub,2013-04-23 19:21:00,
2013-04-23 14:26:00,43.7,40.5,29.93,WNW,293,3.0,4.0,88,0.00,,,0.41,meteohub,2013-04-23 19:26:00,
2013-04-23 14:31:00,43.7,40.5,29.93,West,270,6.0,6.0,88,0.00,,,0.41,meteohub,2013-04-23 19:31:00,
2013-04-23 14:36:00,43.3,40.1,29.93,NNW,338,1.0,6.0,88,0.00,,,0.41,meteohub,2013-04-23 19:36:00,
2013-04-23 14:41:00,43.3,40.1,29.94,NE,45,2.0,6.0,88,0.00,,,0.41,meteohub,2013-04-23 19:41:00,
2013-04-23 14:46:00,43.3,40.3,29.94,SW,225,2.0,6.0,89,0.00,,,0.41,meteohub,2013-04-23 19:46:00,
2013-04-23 14:51:00,43.0,39.7,29.94,NE,45,3.0,3.0,88,0.00,,,0.41,meteohub,2013-04-23 19:51:00,
2013-04-23 14:56:00,42.8,39.6,29.94,North,0,2.0,3.0,88,0.00,,,0.41,meteohub,2013-04-23 19:56:00,
2013-04-23 15:01:00,42.8,39.6,29.95,NNE,23,3.0,3.0,88,0.00,,,0.41,meteohub,2013-04-23 20:01:00,
2013-04-23 15:06:00,42.6,39.4,29.95,NE,45,3.0,3.0,88,0.03,,,0.43,meteohub,2013-04-23 20:06:00,
2013-04-23 15:11:00,42.1,38.8,29.95,NE,45,3.0,3.0,88,0.03,,,0.43,meteohub,2013-04-23 20:11:00,
2013-04-23 15:17:00,41.9,38.7,29.95,SE,135,3.0,3.0,88,0.03,,,0.43,meteohub,2013-04-23 20:17:00,
2013-04-23 15:22:00,41.9,38.8,29.95,ENE,68,3.0,6.0,89,0.03,,,0.43,meteohub,2013-04-23 20:22:00,
2013-04-23 15:27:00,41.9,38.8,29.95,ENE,68,3.0,6.0,89,0.03,,,0.43,meteohub,2013-04-23 20:27:00,
2013-04-23 15:32:00,41.9,38.8,29.95,NNE,23,1.0,6.0,89,0.03,,,0.43,meteohub,2013-04-23 20:32:00,
2013-04-23 15:37:00,41.7,38.7,29.95,North,0,2.0,4.0,89,0.03,,,0.43,meteohub,2013-04-23 20:37:00,
2013-04-23 15:42:00,41.7,38.7,29.95,NNE,23,1.0,5.0,89,0.03,,,0.43,meteohub,2013-04-23 20:42:00,
2013-04-23 15:47:00,41.7,38.7,29.95,NE,45,3.0,5.0,89,0.03,,,0.43,meteohub,2013-04-23 20:47:00,
2013-04-23 15:52:00,41.7,38.7,29.95,NNE,23,2.0,5.0,89,0.03,,,0.43,meteohub,2013-04-23 20:52:00,
2013-04-23 15:57:00,41.5,38.5,29.95,South,180,5.0,5.0,89,0.03,,,0.43,meteohub,2013-04-23 20:57:00,
2013-04-23 16:02:00,41.4,38.3,29.94,NNE,23,3.0,5.0,89,0.00,,,0.43,meteohub,2013-04-23 21:02:00,
2013-04-23 16:07:00,41.2,38.1,29.94,NNE,23,6.0,6.0,89,0.00,,,0.43,meteohub,2013-04-23 21:07:00,
2013-04-23 16:12:00,41.2,38.1,29.94,NNE,23,1.0,5.0,89,0.00,,,0.43,meteohub,2013-04-23 21:12:00,
2013-04-23 16:17:00,41.2,38.1,29.94,NNE,23,0.0,6.0,89,0.00,,,0.43,meteohub,2013-04-23 21:17:00,
2013-04-23 16:22:00,41.2,38.1,29.94,NNE,23,2.0,6.0,89,0.00,,,0.43,meteohub,2013-04-23 21:22:00,
2013-04-23 16:27:00,41.0,37.9,29.95,SE,135,4.0,4.0,89,0.00,,,0.43,meteohub,2013-04-23 21:27:00,
2013-04-23 16:32:00,40.8,37.8,29.95,NNW,338,3.0,4.0,89,0.00,,,0.43,meteohub,2013-04-23 21:32:00,
2013-04-23 16:37:00,40.6,37.4,29.95,NNE,23,3.0,4.0,88,0.00,,,0.43,meteohub,2013-04-23 21:37:00,
2013-04-23 16:42:00,40.6,37.4,29.96,NW,315,6.0,6.0,88,0.00,,,0.43,meteohub,2013-04-23 21:42:00,
2013-04-23 16:47:00,40.5,37.2,29.96,South,180,2.0,6.0,88,0.00,,,0.43,meteohub,2013-04-23 21:47:00,
2013-04-23 16:52:00,40.5,37.2,29.96,WNW,293,2.0,6.0,88,0.03,,,0.46,meteohub,2013-04-23 21:52:00,
2013-04-23 16:57:00,40.1,36.9,29.96,NNE,23,4.0,6.0,88,0.03,,,0.46,meteohub,2013-04-23 21:57:00,
2013-04-23 17:02:00,39.9,36.7,29.97,NE,45,2.0,4.0,88,0.03,,,0.46,meteohub,2013-04-23 22:02:00,
2013-04-23 17:07:00,39.7,36.7,29.97,NNE,23,4.0,4.0,89,0.03,,,0.46,meteohub,2013-04-23 22:07:00,
2013-04-23 17:12:00,39.9,36.9,29.97,ENE,68,5.0,5.0,89,0.03,,,0.46,meteohub,2013-04-23 22:12:00,
2013-04-23 17:17:00,39.9,36.9,29.97,North,0,4.0,5.0,89,0.03,,,0.46,meteohub,2013-04-23 22:17:00,
2013-04-23 17:22:00,39.7,36.7,29.97,NNE,23,2.0,5.0,89,0.03,,,0.46,meteohub,2013-04-23 22:22:00,
2013-04-23 17:27:00,39.7,36.7,29.97,East,90,0.0,5.0,89,0.03,,,0.46,meteohub,2013-04-23 22:27:00,
2013-04-23 17:32:00,39.6,36.5,29.97,South,180,2.0,4.0,89,0.03,,,0.46,meteohub,2013-04-23 22:32:00,
2013-04-23 17:37:00,39.7,36.7,29.97,WSW,248,2.0,4.0,89,0.03,,,0.46,meteohub,2013-04-23 22:37:00,
2013-04-23 17:42:00,39.4,36.5,29.98,ENE,68,2.0,4.0,89,0.03,,,0.46,meteohub,2013-04-23 22:42:00,
2013-04-23 17:47:00,39.4,36.5,29.98,NNE,23,2.0,3.0,89,0.00,,,0.46,meteohub,2013-04-23 22:47:00,
2013-04-23 17:52:00,39.7,36.7,29.98,NNE,23,2.0,5.0,89,0.00,,,0.46,meteohub,2013-04-23 22:52:00,
2013-04-23 17:57:00,39.6,36.5,29.98,ENE,68,2.0,5.0,89,0.00,,,0.46,meteohub,2013-04-23 22:57:00,
2013-04-23 18:02:00,39.7,36.7,29.98,SSE,158,1.0,5.0,89,0.00,,,0.46,meteohub,2013-04-23 23:02:00,
2013-04-23 18:07:00,39.7,36.7,29.98,NNW,338,3.0,3.0,89,0.00,,,0.46,meteohub,2013-04-23 23:07:00,
2013-04-23 18:12:00,39.7,36.7,29.98,NW,315,2.0,3.0,89,0.00,,,0.46,meteohub,2013-04-23 23:12:00,
2013-04-23 18:17:00,39.7,36.7,29.98,East,90,0.0,3.0,89,0.00,,,0.46,meteohub,2013-04-23 23:17:00,
2013-04-23 18:22:00,39.7,36.7,29.99,WSW,248,3.0,5.0,89,0.00,,,0.46,meteohub,2013-04-23 23:22:00,
2013-04-23 18:27:00,39.4,36.5,29.99,NNE,23,2.0,5.0,89,0.00,,,0.46,meteohub,2013-04-23 23:27:00,
2013-04-23 18:32:00,39.2,36.3,29.99,NNE,23,2.0,5.0,89,0.00,,,0.46,meteohub,2013-04-23 23:32:00,
2013-04-23 18:37:00,39.4,36.5,29.99,WNW,293,4.0,4.0,89,0.00,,,0.46,meteohub,2013-04-23 23:37:00,
2013-04-23 18:42:00,39.2,36.3,29.99,NNW,338,3.0,7.0,89,0.03,,,0.49,meteohub,2013-04-23 23:42:00,
2013-04-23 18:47:00,39.2,36.3,29.99,NE,45,1.0,7.0,89,0.03,,,0.49,meteohub,2013-04-23 23:47:00,
2013-04-23 18:52:00,39.2,36.3,29.99,North,0,6.0,7.0,89,0.03,,,0.49,meteohub,2013-04-23 23:52:00,
2013-04-23 18:57:00,39.0,36.1,29.99,ENE,68,2.0,6.0,89,0.03,,,0.49,meteohub,2013-04-23 23:57:00,
2013-04-23 19:02:00,39.0,36.1,30.01,NE,45,4.0,6.0,89,0.03,,,0.49,meteohub,2013-04-24 00:02:00,
2013-04-23 19:07:00,38.7,35.8,30.01,West,270,3.0,6.0,89,0.03,,,0.49,meteohub,2013-04-24 00:07:00,
2013-04-23 19:11:00,38.5,35.6,30.01,NW,315,1.0,4.0,89,0.03,,,0.49,meteohub,2013-04-24 00:11:00,
2013-04-23 19:17:00,38.5,35.6,30.01,ESE,113,4.0,4.0,89,0.03,,,0.49,meteohub,2013-04-24 00:17:00,
2013-04-23 19:22:00,38.5,35.6,30.01,ENE,68,3.0,4.0,89,0.03,,,0.49,meteohub,2013-04-24 00:22:00,
2013-04-23 19:27:00,38.5,35.8,30.01,NE,45,4.0,4.0,90,0.03,,,0.49,meteohub,2013-04-24 00:27:00,
2013-04-23 19:32:00,38.3,35.6,30.01,NE,45,1.0,4.0,90,0.03,,,0.49,meteohub,2013-04-24 00:32:00,
2013-04-23 19:37:00,38.1,35.4,30.01,NNE,23,1.0,4.0,90,0.03,,,0.49,meteohub,2013-04-24 00:37:00,
2013-04-23 19:42:00,38.3,35.6,30.02,West,270,5.0,5.0,90,0.00,,,0.49,meteohub,2013-04-24 00:42:00,
2013-04-23 19:47:00,38.1,35.4,30.02,NNW,338,3.0,5.0,90,0.00,,,0.49,meteohub,2013-04-24 00:47:00,
2013-04-23 19:52:00,38.1,35.4,30.02,South,180,2.0,5.0,90,0.00,,,0.49,meteohub,2013-04-24 00:52:00,
2013-04-23 19:57:00,38.3,35.6,30.02,NNE,23,2.0,5.0,90,0.00,,,0.49,meteohub,2013-04-24 00:57:00,
2013-04-23 20:02:00,38.3,35.6,30.02,WSW,248,4.0,4.0,90,0.00,,,0.49,meteohub,2013-04-24 01:02:00,
2013-04-23 20:07:00,38.1,35.4,30.02,NNE,23,2.0,6.0,90,0.00,,,0.49,meteohub,2013-04-24 01:07:00,
2013-04-23 20:12:00,37.9,35.1,30.02,NW,315,3.0,6.0,89,0.00,,,0.49,meteohub,2013-04-24 01:12:00,
2013-04-23 20:17:00,37.8,34.9,30.02,NE,45,3.0,4.0,89,0.00,,,0.49,meteohub,2013-04-24 01:17:00,
2013-04-23 20:22:00,37.8,34.9,30.04,NW,315,2.0,3.0,89,0.00,,,0.49,meteohub,2013-04-24 01:22:00,
2013-04-23 20:27:00,37.8,34.9,30.04,NNE,23,2.0,3.0,89,0.00,,,0.49,meteohub,2013-04-24 01:27:00,
2013-04-23 20:32:00,37.8,34.9,30.04,North,0,2.0,3.0,89,0.00,,,0.49,meteohub,2013-04-24 01:32:00,
2013-04-23 20:37:00,37.6,34.7,30.04,NNW,338,3.0,3.0,89,0.00,,,0.49,meteohub,2013-04-24 01:37:00,
2013-04-23 20:42:00,37.6,34.7,30.05,NNE,23,2.0,3.0,89,0.00,,,0.49,meteohub,2013-04-24 01:42:00,
2013-04-23 20:47:00,37.6,34.7,30.05,NNW,338,2.0,4.0,89,0.00,,,0.49,meteohub,2013-04-24 01:47:00,
2013-04-23 20:52:00,37.6,34.7,30.05,NW,315,2.0,4.0,89,0.00,,,0.49,meteohub,2013-04-24 01:52:00,
2013-04-23 20:57:00,37.4,34.5,30.05,NNW,338,2.0,4.0,89,0.00,,,0.49,meteohub,2013-04-24 01:57:00,
2013-04-23 21:02:00,37.6,34.7,30.06,SE,135,3.0,5.0,89,0.00,,,0.49,meteohub,2013-04-24 02:02:00,
2013-04-23 21:07:00,37.4,34.5,30.06,NNW,338,2.0,5.0,89,0.00,,,0.49,meteohub,2013-04-24 02:07:00,
2013-04-23 21:12:00,37.6,34.7,30.06,NNE,23,4.0,5.0,89,0.00,,,0.49,meteohub,2013-04-24 02:12:00,
2013-04-23 21:17:00,37.2,34.3,30.06,West,270,4.0,4.0,89,0.00,,,0.49,meteohub,2013-04-24 02:17:00,
2013-04-23 21:22:00,37.2,34.5,30.07,NNW,338,3.0,4.0,90,0.00,,,0.49,meteohub,2013-04-24 02:22:00,
2013-04-23 21:27:00,37.2,34.5,30.07,SW,225,2.0,4.0,90,0.03,,,0.52,meteohub,2013-04-24 02:27:00,
2013-04-23 21:32:00,37.0,34.3,30.07,NNE,23,3.0,4.0,90,0.03,,,0.52,meteohub,2013-04-24 02:32:00,
2013-04-23 21:37:00,37.0,34.3,30.07,NW,315,2.0,3.0,90,0.03,,,0.52,meteohub,2013-04-24 02:37:00,
2013-04-23 21:43:00,37.0,34.3,30.08,South,180,3.0,3.0,90,0.03,,,0.52,meteohub,2013-04-24 02:43:00,
2013-04-23 21:48:00,37.2,34.5,30.07,NNE,23,3.0,3.0,90,0.03,,,0.52,meteohub,2013-04-24 02:48:00,
2013-04-23 21:53:00,37.2,34.5,30.07,NNE,23,2.0,3.0,90,0.03,,,0.52,meteohub,2013-04-24 02:53:00,
2013-04-23 21:58:00,37.0,34.3,30.08,NE,45,3.0,3.0,90,0.03,,,0.52,meteohub,2013-04-24 02:58:00,
2013-04-23 22:03:00,37.2,34.5,30.09,North,0,3.0,4.0,90,0.03,,,0.52,meteohub,2013-04-24 03:03:00,
2013-04-23 22:09:00,37.0,34.3,30.09,NW,315,1.0,4.0,90,0.03,,,0.52,meteohub,2013-04-24 03:09:00,
2013-04-23 22:14:00,37.0,34.3,30.09,North,0,2.0,4.0,90,0.03,,,0.52,meteohub,2013-04-24 03:14:00,
2013-04-23 22:19:00,37.0,34.3,30.09,SSE,158,3.0,3.0,90,0.03,,,0.52,meteohub,2013-04-24 03:19:00,
2013-04-23 22:24:00,37.2,34.5,30.09,NNE,23,3.0,3.0,90,0.00,,,0.52,meteohub,2013-04-24 03:24:00,
2013-04-23 22:29:00,37.0,34.3,30.09,NNW,338,2.0,3.0,90,0.00,,,0.52,meteohub,2013-04-24 03:29:00,
2013-04-23 22:34:00,37.2,34.5,30.09,NW,315,4.0,4.0,90,0.00,,,0.52,meteohub,2013-04-24 03:34:00,
2013-04-23 22:39:00,37.0,34.3,30.09,NNE,23,2.0,3.0,90,0.00,,,0.52,meteohub,2013-04-24 03:39:00,
2013-04-23 22:45:00,37.0,34.3,30.10,NW,315,2.0,4.0,90,0.00,,,0.52,meteohub,2013-04-24 03:45:00,
2013-04-23 22:51:00,37.0,34.3,30.10,NNE,23,2.0,4.0,90,0.00,,,0.52,meteohub,2013-04-24 03:51:00,
2013-04-23 22:56:00,37.0,34.3,30.10,NW,315,3.0,4.0,90,0.00,,,0.52,meteohub,2013-04-24 03:56:00,
2013-04-23 23:01:00,37.0,34.3,30.09,ENE,68,3.0,4.0,90,0.00,,,0.52,meteohub,2013-04-24 04:01:00,
2013-04-23 23:02:00,37.0,34.3,30.09,North,0,0.0,4.0,90,0.00,,,0.52,meteohub,2013-04-24 04:02:00,
2013-04-23 23:07:00,37.0,34.3,30.09,ENE,68,1.0,4.0,90,0.00,,,0.52,meteohub,2013-04-24 04:07:00,
2013-04-23 23:12:00,37.2,34.5,30.09,NNE,23,2.0,4.0,90,0.00,,,0.52,meteohub,2013-04-24 04:12:00,
2013-04-23 23:17:00,37.0,34.3,30.09,East,90,2.0,4.0,90,0.00,,,0.52,meteohub,2013-04-24 04:17:00,
2013-04-23 23:22:00,37.2,34.5,30.08,WSW,248,5.0,5.0,90,0.00,,,0.52,meteohub,2013-04-24 04:22:00,
2013-04-23 23:27:00,37.0,34.3,30.08,ENE,68,5.0,5.0,90,0.00,,,0.52,meteohub,2013-04-24 04:27:00,
2013-04-23 23:32:00,37.0,34.3,30.08,NE,45,5.0,5.0,90,0.00,,,0.52,meteohub,2013-04-24 04:32:00,
2013-04-23 23:37:00,37.0,34.3,30.08,NNE,23,2.0,5.0,90,0.00,,,0.52,meteohub,2013-04-24 04:37:00,
2013-04-23 23:43:00,37.0,34.3,30.07,NW,315,2.0,5.0,90,0.00,,,0.52,meteohub,2013-04-24 04:43:00,
2013-04-23 23:48:00,37.0,34.3,30.07,North,0,3.0,5.0,90,0.00,,,0.52,meteohub,2013-04-24 04:48:00,
2013-04-23 23:53:00,37.0,34.3,30.07,NW,315,4.0,4.0,90,0.00,,,0.52,meteohub,2013-04-24 04:53:00,
2013-04-23 23:58:00,37.0,34.3,30.07,NNE,23,3.0,4.0,90,0.00,,,0.52,meteohub,2013-04-24 04:58:00,